www.pogodaiklimat.ru

Погода и климат >> Архив погоды >> Мексика >> Тапачула


ПОГОДА в Тапачуле

  • Прогноз погоды в Тапачуле
  • Монитор погоды в Тапачуле

АРХИВ ПОГОДЫ в Тапачуле

Время (UTC), дата Ветер
(напр.,м/с)
 
Видим.   Явления Облачность Т
(С)
Тd
(С)
f
(%)
Тe
(С)
Тes
(С)
Комфортность P
(гПа)
Po
(гПа)
Тmin
(С)
Tmax
(С)
R
(мм)
R24
(мм)
S
(см)
06 15.04 ЮВ 2 15 км ясно +25.6 +21.4 78 +33 +33 очень
душно
1011.7 998.4 +37.9
09 15.04 В 2 15 км ясно +24.2 +20.5 80 +30 +30 очень
душно
1010.2 996.8
12 15.04 В 2 25 км дым ясно +23.6 +18.9 75 +28 +28 душно 1011.1 997.6 +23.2 +37.9
15 15.04 Ю 2 35 км ясно +30.0 +22.4 64 +39 +50 очень
душно
1013.0 999.5
18 15.04 Ю 2 30 км 3/0
[Ci sp]
+37.0 +21.1 40 +44 +65 опасность
перегрева
1011.2 997.8 +23.2 +37.2
21 15.04 ЮЗ 2 35 км 1/1 1020 м
[Cu med, cong]
+36.1 +21.0 42 +43 +54 опасность
перегрева
1009.7 996.4
00 16.04 СЗ 2 35 км ясно +30.6 +21.7 59 +39 +39 очень
душно
1008.9 995.7 +23.2 +37.8
03 16.04 СЗ 1 15 км дым 3/0
[Ac und]
+29.8 +22.9 67 +40 +40 очень
душно
1012.1 999.0
09 16.04 СВ 1 15 км ясно +26.8 +20.7 69 +33 +33 очень
душно
1011.6 998.3
12 16.04 СВ 1 30 км ясно +26.2 +20.2 70 +32 +32 очень
душно
1012.6 999.2 +26.0 +37.8
15 16.04 ЮЗ 2 35 км ясно +32.7 +19.5 46 +38 +49 очень
душно
1014.7 1001.3
18 16.04 СЗ 1 35 км ясно +36.6 +19.2 36 +41 +67 опасность
перегрева
1012.7 999.3 +26.0 +37.0
21 16.04 СЗ 2 35 км ясно +36.6 +21.3 41 +44 +56 опасность
перегрева
1010.5 997.3
00 17.04 ЮЗ 2 30 км 5/0
[Ac As]
+32.2 +22.4 56 +41 +41 опасность
перегрева
1010.8 997.7 +26.0 +38.2
03 17.04 С 1 25 км 4/0
[Ac As]
+29.5 +23.2 69 +40 +40 очень
душно
1013.2 1000.0
09 17.04 СЗ 1 25 км 3/0
[Ac As]
+26.8 +22.5 77 +35 +35 очень
душно
1012.2 998.9
12 17.04 СВ 2 25 км 5/0
[Ac As]
+25.9 +20.5 72 +32 +32 очень
душно
1012.1 998.7 +25.4 +38.2
18 17.04 З 2 30 км 8/3 1020 м
[Cu hum Ac trans]
+35.9 +20.4 40 +42 +51 опасность
перегрева
1011.9 998.6 +25.4 +36.9
00 18.04 СЗ 4 25 км дым 6/0 2000 м
[Ac und]
+31.6 +21.6 55 +40 +40 очень
душно
1009.2 996.0 +25.4 +37.1
03 18.04 СЗ 2 15 км 8/0 2000 м
[Ac und]
+29.4 +22.8 68 +39 +39 очень
душно
1011.4 998.2
06 18.04 С 2 15 км 5/0
[Ac und]
+27.8 +22.2 72 +36 +36 очень
душно
1011.9 998.6 +37.1
12 18.04 С 2 25 км 8/0 2000 м
[Ac und]
+26.6 +21.2 72 +34 +34 очень
душно
1009.7 996.3 +26.0 +37.1
15 18.04 СЗ 2 30 км дым ясно +31.0 +22.8 62 +41 +52 опасность
перегрева
1010.9 997.5
18 18.04 З 4 25 км дым 3/0
[Cc]
+35.9 +22.2 45 +44 +58 опасность
перегрева
1010.4 997.1 +26.0 +36.1
21 18.04 З 5 25 км дым ясно +35.7 +22.5 47 +45 +52 опасность
перегрева
1008.0 994.8
00 19.04 З 4 25 км дым ясно +31.5 +22.6 59 +41 +41 опасность
перегрева
1010.0 996.9 +26.0 +37.2
03 19.04 В 1 15 км ясно +29.0 +22.1 66 +37 +37 очень
душно
1011.4 998.2
06 19.04 СВ 1 15 км ясно +27.7 +22.1 72 +36 +36 очень
душно
1012.8 999.6 +37.2
09 19.04 Ю 1 10 км 4/0
[Ac und]
+26.7 +21.8 75 +34 +34 очень
душно
1010.8 997.5
12 19.04 ЮВ 1 20 км 4/0
[Ac und]
+26.0 +21.6 77 +33 +33 очень
душно
1012.0 998.6 +25.6 +37.2
15 19.04 В 2 35 км ясно +31.7 +22.8 59 +41 +52 опасность
перегрева
1010.9 997.5
18 19.04 Ю 4 35 км ясно +35.0 +23.5 51 +46 +60 опасность
перегрева
1010.3 997.0 +25.6 +35.4
21 19.04 З 4 35 км ясно +33.8 +24.4 58 +46 +55 опасность
перегрева
1006.5 993.3
00 20.04 З 3 30 км 4/0 2000 м
[Ac As]
+30.0 +24.0 70 +41 +41 опасность
перегрева
1007.4 994.2 +25.6 +37.0
03 20.04 СЗ 2 10 км 4/0 2000 м
[Ac As]
+28.4 +25.7 85 +42 +42 опасность
перегрева
1010.8 997.6
09 20.04 С 2 10 км 3/0
[Ac und]
+26.8 +23.5 82 +36 +36 очень
душно
1012.0 998.7
12 20.04 СВ 2 30 км ясно +25.5 +22.3 82 +33 +33 очень
душно
1011.0 997.6 +24.8 +37.0
15 20.04 В 2 30 км ясно +31.8 +23.1 60 +42 +53 опасность
перегрева
1014.1 1000.7
18 20.04 З 5 30 км 5/5 1020 м
[Cu med, cong]
+36.0 +23.3 48 +46 +52 опасность
перегрева
1013.3 999.9 +24.8 +36.5
21 20.04 З 4 30 км 5/5 1020 м
[Cu med, cong]
+35.0 +23.7 52 +46 +50 опасность
перегрева
1011.1 997.9
00 21.04 СВ 5 25 км 10/10 900 м
[Cb cap]
+29.0 +23.5 72 +39 +39 очень
душно
1011.8 998.6 +24.8 +36.5
03 21.04 СВ 2 10 км 5/0 2000 м
[Ac trans]
+26.3 +23.3 84 +36 +36 очень
душно
1014.0 1000.7 1
06 21.04 В 1 10 км 4/0 2000 м
[Ac trans]
+26.8 +23.4 82 +36 +36 очень
душно
1014.5 1001.1 +24.8 +36.5
09 21.04 В 2 10 км 5/3 1020 м
[Cu hum Ac trans]
+25.8 +23.2 86 +35 +35 очень
душно
1013.4 1000.0
12 21.04 С 1 10 км 4/0
[Ci fib]
+24.2 +20.6 80 +30 +30 очень
душно
1013.7 1000.2 +23.6 +36.5
15 21.04 З 1 30 км дым ясно +30.5 +21.6 59 +39 +51 опасность
солнечного
удара
1014.8 1001.3
18 21.04 Ю 2 30 км 1/1 1020 м
[Cu hum]
+35.5 +21.7 45 +44 +64 опасность
перегрева
1013.9 1000.5 +23.6 +36.0
21 21.04 ЮЗ 2 30 км 1/1 1000 м
[Cb calv]
+36.1 +20.5 40 +42 +54 опасность
перегрева
1010.8 997.5
00 22.04 ЮЗ 2 25 км 1/1 1500 м
[Sc diur, vesp]
+32.1 +23.3 60 +43 +43 опасность
перегрева
1011.1 997.9 +23.6 +37.1
03 22.04 З 1 10 км дым ясно +29.0 +24.7 78 +41 +41 опасность
перегрева
1013.3 1000.1

 

Местоположение метеостанции Тапачула (Мексика): широта 14.92 долгота -92.25 высота над уровнем моря 118 м.

В архиве по умолчанию представлена погода в Тапачуле за последнюю неделю. Архивные данные за месяц целиком и за предыдущие месяцы, начиная с января 2011 года, Вы можете получить, выбрав интересующий диапазон дат из раскрывающегося списка и нажав кнопку "Ввод!".


*Определитесь, кто Вы:
робот инопланетянин человек

Внимание! Время в таблицах - всемирное. Для получения местного времени необходимо прибавить поправку, которая равна -6 ч.

Смотрите также архив погоды в соседних городах и на ближайших метеорологических станциях:

Погода в Уэуэтенанго (Гватемала) (96 км)
Погода в Комитане (Мексика) (148 км)
Погода в Пуэрто Сан Хосе (Гватемала) (191 км)
Погода в Гватемале (Гватемала) (191 км)
Погода в Сан-Кристобаль-де-лас-Касасе (Мексика) (208 км)
Погода в Тустла-Гутьерресе (Мексика) (224 км)
Погода в Арриаге (Мексика) (229 км)
Погода в Нуэва Окотепеке (Гондурас) (335 км)
Погода во Флоресе (Гватемала) (337 км)
Погода в Салина-Крусе (Мексика) (343 км)

Пояснения к столбцам:

Ветер - указаны скорость ветра в м/с - средняя за 10 мин, порывы в срок и между сроками (в фигурных скобках) и направление, откуда дует ветер: С - северный, СВ - северо-восточный, В - восточный, ЮВ - юго-восточный, Ю - южный, ЮЗ - юго-западный, З - западный, СЗ - северо-западный.
Видимость - горизонтальная дальность видимости в метрах или километрах. При видимости от 1 до 10 км при отсутствии осадков обычно наблюдается дымка, при ухудшении видимости до 1 км и менее - туман. В сухую погоду видимость может ухудшаться дымом, пылью или мглою.
Явления - указаны атмосферные явления, наблюдавшиеся в срок или в последний час перед сроком; фигурными скобками обозначены явления, наблюдавшиеся между сроками (за 1-3 часа до срока); квадратными скобками обозначены град или гололедные отложения с указанием их диаметра в мм.
Облачность - указаны через наклонную черту общая и нижняя облачность в баллах и высота нижней границы облаков в метрах; квадратными скобками обозначены формы облаков: Ci - перистые, Cs - перисто-слоистые, Cc - перисто-кучевые, Ac - высококучевые, As - высокослоистые, Sc - слоисто-кучевые, Ns - слоисто-дождевые, Cu - кучевые, Cb - кучево-дождевые. Подробнее классификацию облаков см. в Атласе облаков (PDF).
T - Температура воздуха - температура, измеренная на высоте 2 м над землей.
Td - Температура точки росы - температура, при понижении до которой содержащийся в воздухе водяной пар достигнет насыщения.
f - Относительная влажность воздуха - влажноcть воздуха, измеренная на высоте 2 м над землей.
Te - Эффективная температура - температура, которую ощущает одетый по сезону человек в тени. Характеристика душности погоды. При расчете учитывается влияние влажности воздуха и скорости ветра на теплоощущения человека.
Tes - Эффективная температура на солнце - температура, которую ощущает человек, с поправкой на солнечный нагрев. Характеристика знойности погоды. Зависит от высоты солнца над горизонтом, облачности и скорости ветра. Ночью, в пасмурную погоду, а также при ветре 12 м/с и более поправка равна нулю.
P - Атмосферное давление - приведенное к уровню моря атмосферное давление.
Po - Атмосферное давление - измеренное на уровне метеостанции атмосферное давление.
Tmin - Минимальная температура - минимум температуры воздуха на высоте 2 м над землей.
Tmax - Максимальная температура - максимум температуры воздуха на высоте 2 м над землей.
R - Количество осадков - Количество выпавших осадков за период времени, мм. При наведении курсора мыши на число - период времени, за который выпало указанное количество осадков.
R24 - Количество осадков - Количество выпавших осадков за 24 часа, мм.
S - Снежный покров - Высота снежного покрова, см. При наведении курсора мыши на число - состояние снежного покрова и степень покрытия местности в баллах.